Regional Weather Roundup
Issued by NWS Sioux Falls, SD

Home | Current Version | Previous Version | Graphics & Text | Print | Product List | Glossary Off
Versions: 1 2 3 4 5 6 7 8 9 10 11 12 13 14 15 16 17 18 19 20 21 22 23 24 25 26 27 28 29 30 31 32 33 34 35 36 37 38 39 40 41 42 43 44 45 46 47 48 49 50

000
ASUS43 KFSD 181610
RWRFSD

WEATHER ROUNDUP FOR SE SOUTH DAKOTA/SW MINNESOTA/NW IOWA
NATIONAL WEATHER SERVICE SIOUX FALLS SD
1000 AM CST SUN FEB 18 2018

NOTE: "FAIR" INDICATES FEW OR NO CLOUDS BELOW 12,000 FEET WITH NO
SIGNIFICANT WEATHER AND OR OBSTRUCTIONS TO VISIBILITY.


SDZ038>040-050-052>070-181700-
SOUTHEAST SOUTH DAKOTA

CITY           SKY/WX    TMP DP  RH WIND       PRES   REMARKS
BROOKINGS      CLOUDY    36  24  62 S18G31    29.51F
CHAMBERLAIN    CLOUDY    40  29  64 SW8       29.47S
HURON          CLOUDY    36  25  64 S9        29.46S
MADISON        FAIR      36  28  75 S15       29.52S
MITCHELL       CLOUDY    41  26  55 SW10      29.50R
SIOUX FALLS    CLOUDY    39  27  62 S23G35    29.53F
WINNER         FAIR      41  27  57 W8        29.50R
YANKTON        CLOUDY    42  27  55 S24G39    29.52F
$$

MNZ071-072-080-081-089-090-097-098-181700-
SOUTHWEST MINNESOTA

CITY           SKY/WX    TMP DP  RH WIND       PRES   REMARKS
FAIRMONT       MOSUNNY   34  26  72 S30G37    29.69F WCI  20
JACKSON        CLOUDY    34  27  75 S28G39    29.66F WCI  20
LUVERNE        CLOUDY    34  27  75 S21G26    29.56F WCI  22
MARSHALL       CLOUDY    38  24  57 S35G45    29.50F
MONTEVIDEO     CLOUDY    32  23  69 S13G18    29.56F WCI  22
PIPESTONE      CLOUDY    34  27  75 S21G28    29.54S WCI  22
REDWOOD FALLS  CLOUDY    31  23  72 S22G36    29.60F WCI  18
TRACY          CLOUDY    38  28  68 S26G44    29.53F
WINDOM         MOSUNNY   36  18  48 S26G38    29.59F
WORTHINGTON    CLOUDY    37  26  64 S35G43    29.57F
$$

IAZ001>003-012>014-020>022-031-032-NEZ013-014-SDZ071-181700-
NORTHWEST IOWA

CITY           SKY/WX    TMP DP  RH WIND       PRES   REMARKS
CHEROKEE       SUNNY     40  28  63 S24G32    29.68F
DENISON        CLOUDY    41  30  65 S26G41    29.77F
ESTHERVILLE    CLOUDY    32  26  78 S33G41    29.67F WCI  17
LE MARS        CLOUDY    39  28  65 S29G38    29.62F
ORANGE CITY    CLOUDY    39  30  70 S26G35    29.62F
SHELDON        SUNNY     39  28  65 S28G37    29.60F
SIOUX CITY     SUNNY     41  27  57 S29G41    29.68F
SPENCER        SUNNY     37  28  70 S26       29.66F
STORM LAKE     SUNNY     39  30  70 S30G40    29.69F
$$

ABBREVIATIONS USED IN REMARKS
   TC - TEMPERATURE IN CELSIUS
  WCI - WIND CHILL INDEX
   HX - HEAT INDEX
  VSB - VISIBILITY





USA.gov is the U.S. government's official web portal to all federal, state and local government web resources and services.